Retour au catalogue

FENGYUN 1C DEB

ActifSSO
NORAD 46443·DEBRIS·🇨🇳 China

Lancé May 10, 1999 depuis Taiyuan Satellite Launch Center

Loading…

Prochains Passages (prochaines 24 heures)

TLE

FraisSource: Space-Track

Époque: Sep 14, 2026, 10:54 UTC

1 46443U 99025EYY 26257.45429605  .00001673  00000-0  89324-3 0  9999
2 46443  99.2017 336.5162 0095011 303.3733 113.3540 14.12435785634869

Suivez FENGYUN 1C DEB en temps réel avec AllMySat

Download on the App Store